Location: Acheville
(50.3840°N, 2.8827°E)
Time: 10:20:54
(UTC+00:00)

YAOGAN 1 - Pass Details

Date: 24 October 2021
Orbit: 618 x 620 km, 97.9° (Epoch: 30 November)

Event Time Altitude Azimuth Distance (km) Brightness Sun altitude
Rises 18:43:39 0° 174° (S) 2,885 5.9 -20.5°
Reaches altitude 10° 18:45:51 10° 178° (S) 1,984 5.1 -20.9°
Maximum altitude 18:50:08 60° 259° (W) 713 3.1 -21.6°
Drops below altitude 10° 18:54:26 10° 340° (NNW) 2,000 5.5 -22.2°
Sets 18:56:40 0° 344° (NNW) 2,911 6.3 -22.6°
